Location: Newark
(33.6439°N, 114.9881°W)
Time: 16:04:59
(UTC+00:00)

Envisat - Visible Passes

Search period start: 14 October 2019 00:00
Search period end: 24 October 2019 00:00
Orbit: 764 x 766 km, 98.1° (Epoch: 14 October)

Date Brightness Start Highest point End Pass type
(mag) Time Alt. Az. Time Alt. Az. Time Alt. Az.
14 Oct 5.4 02:49:26 10° SSW 02:53:25 23° W 02:57:26 10° NW visible
15 Oct 3.7 02:11:33 10° S 02:16:31 56° W 02:21:31 10° NNW visible
16 Oct 3.0 01:34:49 10° SSE 01:39:48 60° ENE 01:44:48 10° N visible
16 Oct 6.1 03:17:08 10° WSW 03:19:08 12° W 03:21:08 10° WNW visible
17 Oct 4.9 02:37:41 10° SSW 02:42:06 30° W 02:46:32 10° NW visible
17 Oct 6.7 13:13:56 10° ENE 13:15:34 11° E 13:17:11 10° ESE visible
18 Oct 3.2 02:00:12 10° S 02:05:15 74° WSW 02:10:20 10° NNW visible
19 Oct 3.3 01:23:45 10° SE 01:28:35 46° ENE 01:33:25 10° N visible
19 Oct 5.9 03:04:41 10° SW 03:07:46 16° W 03:10:53 10° NW visible
20 Oct 4.4 02:26:05 10° SSW 02:30:47 39° W 02:35:32 10° NNW visible
21 Oct 3.0 01:48:55 10° SSE 01:53:59 86° ENE 01:59:05 10° N visible
22 Oct 5.5 02:52:38 10° SW 02:56:25 21° W 03:00:14 10° NW visible
23 Oct 3.9 02:14:35 10° S 02:19:30 51° W 02:24:27 10° NNW visible
